{"data":{"norad_id":29643,"intl_designator":"2006-054A","name":"WILDBLUE-1","alt_names":[],"object_type":"PAYLOAD","status":"ACTIVE","operator":null,"country":"US","launch_date":"2006-12-08","launch_site_code":"FRGUI","launch_vehicle":null,"mission":null,"orbit_class":"UNKNOWN","rcs_meters":262.6219,"size_class":null,"mass_kg":null,"dimensions":null,"purposes":["comms"],"wikipedia_slug":null,"has_3d_model":false,"image_url":null,"decayed_at":null,"tle_current":{"epoch":"2026-09-19T17:04:05.760192Z","epoch_age_seconds":75906,"freshness":"FRESH","line1":"1 29643U 06054A   26262.71117778 -.00000046  00000+0  00000+0 0  9995","line2":"2 29643   3.0407  79.2352 0004830  95.6748 100.0485  0.99178017 54731","mean_motion":0.99178017,"eccentricity":0.000483,"inclination_deg":3.0407,"raan_deg":79.2352,"arg_perigee_deg":95.6748,"mean_anomaly_deg":100.0485,"bstar":0,"rev_number":5473,"period_min":1451.9346560438,"perigee_km":36075.517321135,"apogee_km":36116.547368722,"semimajor_km":42474.169344928,"source":"CELESTRAK","updated_at":"2026-09-20T09:00:35.128714Z"}}}